Location: Oberkirch
(48.5323°N, 8.0787°E)
Time: 15:32:45
(UTC+00:00)

Tiros 1 despin weight - Pass Details

Date: 12 February 2026
Orbit: 556 x 593 km, 48.2° (Epoch: 5 March)

Event Time Altitude Azimuth Distance (km) Brightness Sun altitude
Rises 18:32:39 0° 258° (WSW) 2,730 ? -18.4°
Reaches altitude 10° 18:34:54 10° 257° (WSW) 1,836 ? -18.8°
Maximum altitude 18:39:05 80° 172° (S) 571 ? -19.5°
Enters shadow 18:39:59 54° 95° (E) 684 ? -19.7°
